Miscellaneous Local Product
Issued by NWS North Platte, NE

Home | Current Version | Previous Version | Text Only | Print | Product List | Glossary On
Versions: 1 2 3 4 5 6 7 8 9 10 11 12 13 14 15 16 17 18 19 20 21 22 23 24 25 26 27 28 29 30 31 32 33 34 35 36 37 38 39 40 41 42 43 44 45 46 47 48 49 50
000
AXUS43 KLBF 021210
MISLBF


WESTERN AND NORTH CENTRAL NEBRASKA HOURLY WEATHER ROUNDUP
NATIONAL WEATHER SERVICE NORTH PLATTE NE
700 AM CDT SAT MAY 02 2015

***STATIONS NOT REPORTING VARIABLES SUCH AS SKY/WEATHER OR
PRESSURE ARE PROVIDED BY THE NEBRASKA DEPARTMENT OF
ROADS...RAWS...AND APRS NETWORKS...AND ARE NOT UNDER
NATIONAL WEATHER SERVICE QUALITY CONTROL***

...OBSERVATIONS IN AND NEAR THE EASTERN PANHANDLE OF NEBRASKA...

CITY           SKY/WX    TMP DP  RH WIND       PRES   REMARKS
PINE RIDGE     CLEAR     53  43  68 SW6       29.85F
CHADRON        CLEAR     44  41  89 CALM      29.84F
ALLIANCE       CLEAR     44  42  93 SE6       29.88F
SIDNEY         CLEAR     43  41  93 SW9       29.93S
WHITECLAY        N/A     53  43  69 SE12        N/A
CRESCENT LAKE    N/A     49  46  90 S6          N/A
BIG SPRINGS      N/A     49  46  91 CALM        N/A
$$

...OBSERVATIONS IN NORTH CENTRAL NEBRASKA...

CITY           SKY/WX    TMP DP  RH WIND       PRES   REMARKS
VALENTINE      CLEAR     48  45  89 S3        29.87F
THEDFORD       CLEAR     49  47  95 W3        29.91S
AINSWORTH      CLEAR     49  47  94 S7        29.89S
O`NEILL        PTCLDY    56  49  80 SE9       29.88S
ORD            PTCLDY    53  48  83 SE6       29.88F
BROKEN BOW     CLEAR     48  43  82 N5        29.89S
BROWNLEE         N/A     55  52  90 S6          N/A
VALENTINE NWR    N/A     50  49  95 CALM        N/A
SPRINGVIEW       N/A     53  49  85 CALM        N/A
HALSEY           N/A     51  49  95 CALM        N/A
BREWSTER         N/A     47  46  95 CALM        N/A
ROSE             N/A     53  51  94 E6          N/A
NEWPORT          N/A     53  47  83 SW6         N/A
SARGENT          N/A     48  46  92 CALM        N/A
COMSTOCK         N/A     52  50  92 CALM        N/A
EWING            N/A     57  52  83 S5          N/A
$$

...OBSERVATIONS IN SOUTHWEST NEBRASKA AND FAR NORTHEAST COLORADO...

CITY           SKY/WX    TMP DP  RH WIND       PRES   REMARKS
WRAY           FAIR      51  49  92 SW8       29.92F
IMPERIAL       CLEAR     47  44  90 SW5       29.92S
OGALLALA       CLEAR     45  43  95 CALM      29.91S
NORTH PLATTE   FOG       45  45 100 CALM      29.91S VSB 1
MCCOOK         CLEAR     52  47  83 W5        29.92S
LEXINGTON      CLEAR     49  46  91 S3        29.90S
PAXTON           N/A     45  42  88 CALM        N/A
SUTHERLAND       N/A     44  42  91 CALM        N/A
GOTHENBURG       N/A     52  46  80 CALM        N/A
CALLAWAY         N/A     51  48  90 CALM        N/A
$$

...NORTH PLATTE AREA...

CITY           SKY/WX    TMP DP  RH WIND       PRES   REMARKS
AIRPORT        FOG       45  45 100 CALM      29.91S VSB 1
DOWNTOWN         N/A     51  49  94 CALM        N/A
$$

...SOME WEATHER OBSERVATIONS FROM AROUND THE REGION...

CITY           SKY/WX    TMP DP  RH WIND       PRES   REMARKS
DENVER         MOCLDY    49  40  71 SW10      29.99S
LARAMIE        CLEAR     39  32  76 SW10      30.06S WCI  32
CHEYENNE       CLEAR     49  35  58 W15       30.00S
SCOTTSBLUFF    CLEAR     44  41  89 E6        29.89F
RAPID CITY     CLEAR     45  39  79 CALM      29.80F
PIERRE         CLEAR     48  40  73 SE8       29.80F
WINNER         FAIR      58  47  66 S14       29.84F
SIOUX FALLS    PTCLDY    47  44  90 E3        29.90S
OMAHA          CLOUDY    57  47  69 SE7       29.94F
GRAND ISLAND   PTCLDY    55  51  86 SE5       29.90S
KANSAS CITY    CLOUDY    56  51  84 E8        30.05R
WICHITA        CLOUDY    60  48  64 S10       30.01S
HAYS           CLOUDY    63  46  55 SW12      29.96S
LIBERAL        MOCLDY    55  46  71 SE10      30.00S
GOODLAND       CLEAR     49  47  93 S9        29.96F
$$



USA.gov is the U.S. government's official web portal to all federal, state and local government web resources and services.